PDT,Max TemperatureF,Mean TemperatureF,Min TemperatureF,Max Dew PointF,MeanDew PointF,Min DewpointF,Max Humidity, Mean Humidity, Min Humidity, Max Sea Level PressureIn, Mean Sea Level PressureIn, Min Sea Level PressureIn, Max VisibilityMiles, Mean VisibilityMiles, Min VisibilityMiles, Max Wind SpeedMPH, Mean Wind SpeedMPH, Max Gust SpeedMPH,PrecipitationIn, CloudCover, Events, WindDirDegrees
2012-9-1,75,60,46,45,35,27,71,42,18,30.04,29.96,29.83,10,10,10,18,7,23,0.00,0,,219
2012-9-2,75,60,46,41,35,3,62,41,11,30.10,30.06,30.03,10,10,10,16,7,23,0.00,0,,194
2012-9-3,78,60,41,45,38,34,76,47,20,30.12,30.06,29.98,10,10,7,15,4,21,0.00,0,,172
2012-9-4,78,60,42,46,40,36,76,51,23,30.17,30.12,30.05,10,10,6,17,4,23,0.00,0,,225
2012-9-5,78,60,41,46,40,19,81,51,24,30.10,30.02,29.90,10,10,7,33,5,44,0.00,1,,62
2012-9-6,73,62,50,45,43,41,76,54,33,30.15,30.08,29.99,10,10,10,22,15,26,0.00,0,,31
2012-9-7,80,63,46,48,42,32,82,53,18,30.27,30.22,30.15,10,10,5,13,8,,0.00,0,,64
2012-9-8,84,67,50,46,41,27,76,46,12,30.20,30.10,29.91,10,10,8,16,7,,0.00,0,,59
2012-9-9,82,71,60,48,42,32,59,39,20,29.91,29.84,29.80,10,10,10,24,12,29,0.01,2,,200
2012-9-10,68,58,44,45,28,7,71,41,11,30.03,29.94,29.87,10,10,8,28,13,41,0.00,4,,210
2012-9-11,62,48,33,39,21,1,81,40,11,30.26,30.19,30.04,10,10,7,15,6,18,0.00,0,,218
2012-9-12,68,50,32,39,22,1,81,43,11,30.41,30.36,30.26,10,10,10,13,4,,0.00,0,,67
2012-9-13,78,60,41,50,30,5,76,44,10,30.40,30.31,30.20,10,10,9,16,7,22,0.00,0,,65
2012-9-14,82,63,44,54,33,9,88,47,10,30.20,30.11,30.00,10,8,5,8,4,,0.02,1,,98
2012-9-15,80,63,46,45,31,9,81,42,10,30.10,30.08,30.04,10,8,5,9,3,,0.00,0,,72
2012-9-16,78,60,42,48,32,7,81,45,10,30.19,30.13,30.09,10,10,8,12,5,,0.00,0,,36
2012-9-17,77,59,41,52,29,9,81,44,10,30.19,30.13,30.10,10,10,9,8,3,,0.00,0,,96
2012-9-18,82,62,41,63,29,7,100,42,10,30.15,30.10,30.03,10,10,6,10,5,,0.00,0,,98
2012-9-19,80,61,42,57,29,9,87,40,10,30.16,30.12,30.08,10,10,4,10,4,,0.00,0,,86
2012-9-20,84,64,44,48,37,9,76,46,10,30.18,30.12,30.06,10,9,5,13,5,,0.00,0,,90
2012-9-21,86,67,48,64,34,10,94,45,10,30.12,30.05,29.96,10,10,10,15,6,,0.00,0,,65
2012-9-22,80,63,46,52,45,39,87,56,26,30.05,30.00,29.95,10,10,9,10,3,,0.00,0,,98
2012-9-23,69,60,50,63,44,39,100,55,38,30.11,30.07,30.01,10,10,9,15,7,,0.00,1,,212
2012-9-24,71,58,44,63,44,10,93,63,10,30.12,30.06,29.99,10,10,8,10,4,,0.00,0,,145
2012-9-25,73,58,42,48,44,39,93,68,36,30.04,30.00,29.98,10,10,6,10,5,,0.00,0,,112
2012-9-26,73,56,39,50,42,36,93,65,33,30.11,30.07,30.04,10,10,6,7,4,,0.00,0,,63
2012-9-27,77,60,44,48,43,7,93,61,12,30.13,30.07,29.99,10,10,8,10,5,,0.00,0,,74
2012-9-28,77,62,46,48,43,36,94,56,24,30.02,29.98,29.92,10,10,10,12,6,,0.00,1,,141
2012-9-29,77,65,53,46,44,43,72,51,31,30.12,30.06,29.99,10,10,10,14,8,20,0.00,2,,196
2012-9-30,73,60,46,48,40,28,82,52,19,30.31,30.25,30.13,10,10,10,14,6,20,0.00,0,,190